Theta_e
305 311 316 321 325 320 320 320 318 321 322 322 322 322 322 322 328 331 314 313 315 326 339 342 342 342 342 341 339 338 339 339 339 339 339 338 337 338 337 334 330 334 336 336 334 333 333 333 332
309 315 322 323 319 319 317 316 318 320 318 317 319 320 321 325 321 314 314 311 313 316 331 339 342 341 341 340 341 338 338 338 340 339 338 338 338 337 337 336 333 333 337 336 334 334 335 332 332
311 318 324 320 317 313 313 316 315 315 314 313 315 317 320 323 312 311 309 309 311 312 318 331 340 341 339 339 340 340 337 336 337 336 337 337 338 338 337 337 334 334 337 338 338 336 336 331 331
315 318 316 318 316 315 313 316 314 314 315 314 312 313 316 316 312 309 308 307 307 309 311 316 334 340 341 339 336 336 336 336 336 335 334 335 338 337 337 337 334 334 336 337 337 336 335 332 327
314 317 316 313 312 312 313 313 310 311 312 314 310 313 313 314 312 306 305 305 306 307 308 312 316 333 340 341 338 335 334 337 337 336 336 337 336 334 337 337 335 334 334 335 336 332 331 329 326
313 311 312 311 312 312 310 308 308 309 309 309 309 306 310 313 313 303 303 304 306 306 307 309 310 314 328 337 340 338 333 334 336 337 336 336 335 335 334 336 335 334 334 331 335 333 328 328 326
311 312 310 309 309 310 309 307 306 306 306 306 305 305 307 312 303 303 304 305 306 306 307 308 308 307 309 320 337 340 337 334 334 336 336 336 335 335 335 335 335 334 331 329 333 333 329 327 326
310 310 309 309 308 310 307 305 304 303 303 303 304 304 305 302 303 304 304 305 306 306 307 307 307 306 304 309 322 334 338 336 334 334 336 336 335 335 335 334 335 334 328 330 330 330 328 326 325
306 307 307 307 307 308 304 302 302 302 301 300 301 301 302 303 304 304 304 305 305 306 306 306 307 307 305 304 307 320 330 337 336 334 334 334 335 336 334 335 335 333 328 331 329 329 328 326 325
306 307 305 303 302 301 301 301 301 301 301 302 302 304 304 305 304 304 305 305 305 305 306 306 306 306 306 304 305 308 315 328 337 336 335 332 331 334 334 334 334 332 328 332 329 329 327 323 324
305 305 303 302 302 301 301 301 303 303 302 302 303 303 304 304 304 305 305 304 304 304 304 305 305 306 306 306 306 311 308 318 332 337 336 334 331 332 335 334 333 332 332 332 329 328 326 323 323
305 303 302 303 303 302 303 303 303 303 303 303 303 303 303 303 304 304 303 302 302 303 303 303 304 305 305 306 305 309 314 312 320 333 336 336 333 332 334 335 334 334 333 330 329 328 326 323 324
305 305 305 305 304 304 304 303 303 303 302 303 303 303 303 303 303 302 301 300 300 300 300 300 301 303 305 306 306 305 312 312 316 320 332 335 335 334 334 335 335 334 332 331 330 328 326 325 324
304 305 305 305 304 304 303 303 302 303 303 303 303 303 302 302 301 300 299 298 298 298 298 299 300 300 303 305 305 306 305 309 308 309 318 330 333 335 335 334 334 334 332 330 329 328 326 325 323
304 305 305 306 305 304 302 303 303 302 304 303 303 303 302 301 299 298 298 298 297 297 297 297 298 299 300 302 304 305 306 308 310 309 308 315 323 332 334 334 334 333 332 330 329 327 326 325 324
305 305 306 306 305 304 302 303 303 303 302 302 302 302 301 299 299 299 298 297 296 296 296 296 297 298 299 300 302 304 305 306 306 308 307 308 313 320 329 331 333 332 331 330 328 328 326 326 324
308 304 305 305 305 305 304 302 302 303 302 301 301 299 299 298 299 298 297 296 296 295 295 295 296 297 299 300 301 303 304 306 307 311 310 308 310 317 324 327 328 332 331 330 329 328 326 325 324
303 304 305 305 305 305 303 302 302 302 301 301 299 299 299 298 298 297 296 295 294 294 294 295 295 297 298 300 301 302 303 305 307 307 308 308 308 315 323 327 329 329 330 330 328 327 325 323 322
303 304 305 306 304 303 303 302 302 302 300 300 299 298 297 296 297 296 294 294 294 294 294 294 295 297 298 300 301 303 304 305 307 308 310 310 308 316 320 324 327 329 331 330 328 327 326 324 323
304 305 305 304 303 302 302 302 302 302 300 300 299 296 296 296 295 294 293 293 293 293 293 293 293 295 295 296 298 303 303 304 306 308 309 311 310 313 318 323 326 327 327 326 329 328 326 325 323
304 304 301 302 302 302 302 302 303 302 301 299 298 296 296 295 294 293 292 292 292 292 292 292 294 294 295 297 299 301 303 304 305 309 312 312 312 311 315 318 324 326 327 326 325 325 327 326 325
301 303 302 302 297 299 302 300 302 302 302 300 297 295 295 293 292 292 291 291 291 291 292 292 293 293 295 297 299 302 303 304 306 307 310 311 311 317 316 319 324 324 325 328 328 328 327 326 324
302 301 301 302 297 298 302 298 302 300 301 297 296 296 294 292 291 291 290 290 290 290 291 291 292 293 295 297 300 302 303 303 306 308 309 311 313 316 316 316 322 325 325 326 327 327 327 325 324
302 301 302 301 298 302 297 296 299 301 299 296 296 295 294 292 290 289 289 289 289 289 290 291 291 292 294 297 302 304 303 304 307 307 309 312 312 314 314 315 319 322 324 324 325 327 326 325 323
300 298 299 298 301 300 293 298 299 299 297 296 295 294 292 291 289 288 288 288 288 289 289 290 290 291 293 296 299 304 303 304 306 309 310 310 311 312 313 313 316 321 322 322 321 324 324 324 323
301 298 296 296 299 300 294 296 300 297 297 295 294 293 292 290 289 288 287 287 287 288 288 288 289 290 292 294 297 300 303 306 307 308 309 309 310 310 311 313 313 313 318 322 322 324 324 324 323
301 300 298 294 293 298 296 299 299 297 292 294 294 293 291 289 288 288 287 287 286 287 288 287 288 289 291 293 294 297 300 301 303 305 306 309 310 310 308 310 311 312 313 322 322 322 322 322 322
298 298 295 294 297 296 296 295 299 290 289 291 292 290 289 289 288 287 287 286 286 286 287 287 287 288 290 291 292 294 296 298 299 300 301 304 306 309 308 308 310 311 313 319 323 322 322 322 322
297 296 295 294 297 300 298 297 292 289 287 289 289 291 288 288 287 287 286 286 285 285 286 287 287 288 289 290 291 292 294 296 297 298 299 301 303 305 306 307 307 309 312 315 320 323 322 323 322
300 298 299 293 293 299 300 299 293 289 287 285 287 290 289 288 288 287 285 285 285 284 284 285 285 287 287 288 290 291 292 294 295 296 298 299 301 302 304 306 306 306 309 311 315 317 317 315 312
Wind_Speed
6 8 5 5 2 3 5 6 5 2 3 8 7 5 7 9 6 2 10 17 18 18 17 6 8 13 13 15 16 13 14 15 16 14 13 14 15 15 16 18 16 14 13 13 14 14 13 11 11
5 4 3 3 2 5 5 11 6 8 6 8 5 5 5 3 7 6 4 17 18 19 18 13 8 13 12 15 15 15 15 16 16 17 16 15 16 17 17 17 16 15 15 14 14 15 14 14 13
7 5 2 3 4 4 5 8 9 6 8 8 7 7 5 4 9 6 11 15 16 21 20 16 12 13 16 15 16 16 16 18 19 19 18 18 19 19 19 19 18 16 16 15 14 15 16 17 17
5 5 4 4 10 9 7 10 9 6 5 4 8 7 6 9 6 9 12 16 18 18 21 20 15 9 16 17 19 18 18 19 21 21 21 21 20 19 21 21 19 17 16 15 14 14 18 20 18
4 4 3 5 11 10 6 12 8 4 6 1 6 5 5 6 11 14 16 18 18 18 19 20 18 14 8 17 18 20 20 21 21 21 22 22 20 19 22 22 21 18 16 16 16 16 18 19 18
3 3 4 7 10 10 9 11 6 5 7 9 5 7 4 12 7 20 18 18 17 16 15 20 18 17 15 8 18 19 22 22 24 24 23 23 23 22 21 22 21 19 18 16 18 18 18 19 19
3 3 5 9 10 8 6 10 9 6 7 4 5 4 5 9 20 22 21 19 17 14 13 13 20 17 16 14 11 20 21 24 25 26 24 24 24 24 24 23 23 21 19 18 21 19 19 19 19
4 3 4 4 4 1 5 5 6 6 5 8 0 4 4 13 21 18 22 20 15 15 14 14 17 19 17 16 15 11 22 24 27 27 27 27 25 24 25 24 24 22 21 22 21 21 20 19 20
3 2 4 6 7 4 8 9 6 7 6 8 7 7 11 18 21 24 22 19 20 18 17 18 17 21 20 16 14 16 12 23 27 29 29 29 29 28 26 26 26 25 25 26 23 21 21 20 20
3 2 7 5 7 7 9 8 8 6 10 12 11 7 14 21 22 18 16 17 20 21 22 20 22 21 23 19 14 13 15 15 21 31 32 31 32 32 30 29 28 27 29 28 25 23 23 20 21
5 3 6 6 7 8 8 10 8 9 8 10 10 11 13 16 14 13 18 21 23 26 26 24 23 21 21 23 16 16 15 15 16 25 35 34 35 35 30 32 32 30 32 32 28 26 26 24 24
4 3 3 5 6 4 7 10 9 15 15 10 9 10 9 7 8 11 15 20 25 25 24 26 24 25 22 22 20 16 16 14 16 15 23 35 34 37 35 36 36 37 37 35 33 32 31 28 25
2 6 6 6 6 7 7 10 11 18 13 8 7 6 7 7 10 18 19 18 21 23 26 28 28 26 24 22 22 21 17 16 16 18 18 26 34 36 40 39 37 37 38 37 36 36 35 31 28
4 7 11 5 4 6 8 15 7 6 7 7 7 8 8 10 13 17 19 19 22 24 26 25 27 27 26 25 24 24 22 22 21 19 21 21 31 31 35 38 34 37 36 39 35 36 37 34 30
5 5 10 6 4 3 5 9 7 10 4 7 8 9 7 8 14 14 18 19 23 26 28 29 27 25 27 28 23 22 24 22 24 24 23 24 23 18 31 35 39 37 39 37 34 34 33 35 34
4 0 5 2 6 5 3 9 12 3 5 9 9 6 6 6 9 15 18 22 25 27 28 29 29 29 28 27 28 27 26 26 27 28 27 27 25 19 20 30 27 33 36 37 35 32 30 32 34
4 3 6 7 6 4 2 11 9 15 11 7 5 6 4 6 9 17 21 24 25 27 29 29 29 30 30 28 27 28 28 27 26 25 28 27 25 19 16 21 37 29 34 39 35 34 33 30 32
4 4 4 10 7 14 11 18 18 11 4 4 5 3 5 7 9 20 26 27 27 27 27 28 27 28 29 28 26 26 27 29 29 30 31 30 26 23 15 15 17 32 26 23 32 31 30 29 27
6 8 10 13 11 8 9 19 21 5 4 4 4 6 7 8 15 23 25 26 27 25 27 27 27 26 26 24 23 23 24 27 28 27 30 28 27 23 21 15 17 15 27 38 29 29 33 29 30
7 9 8 10 11 13 13 18 17 11 5 2 3 6 8 13 14 18 22 22 24 25 26 27 28 28 31 32 29 25 24 27 29 26 28 27 26 24 22 17 17 17 29 23 26 23 24 25 31
6 5 5 11 15 8 7 8 5 5 4 4 4 6 10 14 17 15 19 22 23 25 26 27 26 28 28 28 31 29 25 27 28 17 21 21 20 24 24 24 24 20 19 29 35 36 31 19 25
4 8 12 13 5 3 6 4 7 9 7 7 4 8 13 13 14 12 17 19 23 26 26 27 26 30 28 28 27 29 23 20 23 20 19 21 21 20 19 16 25 29 25 31 25 30 33 27 23
8 12 15 7 2 4 2 1 4 7 3 5 9 15 13 14 15 17 18 24 24 25 26 26 26 30 29 28 30 28 24 24 25 24 20 23 18 17 17 12 13 27 25 27 29 33 39 33 30
9 7 10 3 2 3 2 3 5 2 2 8 13 15 15 17 16 16 23 25 26 27 26 26 26 29 30 28 28 23 24 23 23 17 15 15 17 17 14 12 12 21 20 21 23 30 36 34 33
7 6 4 5 2 5 5 3 9 4 4 9 16 17 16 17 16 16 17 20 23 25 26 25 26 30 29 26 24 16 24 26 18 15 13 12 13 16 17 18 8 14 24 25 21 28 31 32 33
3 2 3 4 4 7 5 5 6 6 6 8 10 12 15 16 15 16 16 21 21 23 24 23 24 27 26 23 23 21 10 4 5 4 7 10 12 10 11 15 19 13 9 27 28 33 31 31 29
2 1 2 2 2 2 5 7 3 3 4 9 12 11 13 14 15 16 17 20 22 21 21 22 22 22 21 21 21 19 15 14 11 9 10 8 8 10 9 13 11 17 15 19 29 27 29 31 30
2 1 2 0 4 5 5 7 5 5 6 8 9 9 12 13 15 15 15 20 21 21 21 22 20 18 17 16 16 16 14 10 11 12 11 10 11 11 9 10 10 10 12 8 31 31 30 29 29
2 1 2 1 2 3 4 6 6 7 4 7 8 8 9 12 13 14 15 20 21 21 21 20 19 17 16 14 13 12 12 10 11 12 11 10 10 9 8 6 7 6 7 4 17 26 23 27 24
1 3 3 3 5 4 2 9 5 7 6 5 6 6 9 10 11 13 16 21 21 21 22 20 21 20 19 18 15 12 11 10 10 10 9 9 9 7 4 5 5 0 1 2 8 15 18 18 17
Wind_Direction
318 340 296 270 238 228 270 246 244 106 28 15 7 340 345 317 346 105 81 19 359 4 9 17 231 224 215 214 211 206 205 207 205 200 193 188 186 185 180 179 176 170 163 165 161 160 164 167 159
343 320 256 262 251 237 254 246 182 49 40 346 298 257 266 86 38 96 60 5 5 2 4 16 224 228 232 226 219 215 210 208 208 207 205 200 195 191 187 189 185 174 168 169 169 171 170 173 165
325 260 251 196 206 224 269 61 56 30 45 17 330 13 12 37 47 69 23 8 8 357 1 359 6 222 234 237 229 220 217 212 213 213 211 208 201 196 195 196 191 185 178 173 178 184 174 170 158
299 205 262 262 244 258 280 87 75 6 113 92 28 295 89 41 80 52 16 9 5 1 352 356 352 360 226 239 232 225 220 220 218 218 219 214 207 203 201 198 193 192 192 176 166 163 173 170 170
240 258 249 233 254 273 334 68 45 9 322 54 71 302 8 82 97 38 13 1 357 353 350 349 354 350 304 231 241 233 224 224 225 224 218 214 212 211 207 203 199 197 198 183 178 178 173 172 174
259 294 249 239 251 256 67 36 12 349 356 353 9 351 289 130 62 17 4 354 347 342 348 340 347 349 343 288 235 241 232 228 227 228 224 217 213 212 213 210 206 205 198 201 195 187 185 182 183
273 215 262 282 286 315 52 355 36 14 332 7 348 305 293 111 16 1 355 346 344 341 342 335 335 343 343 331 269 234 235 234 231 231 229 226 221 217 212 214 214 210 209 206 195 196 193 194 194
311 324 287 257 290 42 64 10 64 358 323 358 59 256 299 339 347 4 347 342 345 345 344 346 331 327 337 328 314 282 234 234 237 234 233 231 229 224 218 217 214 215 212 201 199 201 198 198 199
305 291 267 346 23 8 28 2 351 358 285 271 254 257 277 307 352 353 342 339 339 341 342 343 340 329 327 325 314 300 287 240 235 238 235 233 229 224 227 223 220 214 212 204 203 204 198 201 205
344 279 31 1 6 348 343 329 328 321 303 293 297 327 343 352 354 339 335 339 338 338 338 333 330 325 320 321 311 296 296 279 250 236 236 233 230 228 224 222 223 220 209 206 207 207 201 200 201
4 329 11 16 26 353 320 308 316 316 274 284 335 331 333 346 331 331 352 344 341 332 327 323 319 317 316 314 310 300 284 277 276 245 237 235 232 227 221 221 221 214 208 203 205 204 200 196 196
330 59 349 333 346 327 310 308 293 275 273 290 326 324 324 340 315 357 359 340 326 330 330 331 325 318 313 306 302 298 292 276 264 270 238 231 229 226 219 213 211 205 200 204 202 199 198 195 196
289 7 321 291 268 290 292 283 279 288 282 292 332 308 288 291 316 354 342 330 335 326 323 320 317 317 309 300 295 290 287 282 270 260 256 234 225 222 220 215 207 202 200 200 197 200 198 197 198
337 298 283 252 255 279 308 300 321 273 303 299 288 316 318 318 8 349 337 338 332 326 321 314 309 309 306 297 287 284 278 276 273 268 257 254 240 233 225 213 205 201 199 197 196 195 198 202 201
298 298 286 199 177 277 10 285 191 240 285 263 269 286 328 22 352 333 322 326 322 317 314 311 309 302 300 301 297 282 278 270 270 268 265 259 256 257 253 212 205 202 197 198 197 195 196 202 206
278 157 355 144 189 154 128 279 299 318 296 282 294 329 36 351 315 304 316 319 311 309 309 306 304 301 296 292 291 285 277 273 265 265 263 264 266 263 265 250 232 206 199 196 194 194 193 195 201
60 269 297 316 218 243 206 274 263 295 285 318 331 34 337 284 298 314 311 320 321 319 313 306 302 299 296 291 286 281 277 269 257 256 262 260 265 262 268 259 232 231 215 193 193 191 191 190 194
306 309 315 303 305 300 290 271 280 308 5 340 37 250 288 319 308 321 325 323 320 316 309 305 305 303 299 293 286 281 274 267 258 254 258 259 260 255 248 239 233 233 231 209 190 195 192 192 189
298 292 288 287 306 309 278 291 288 257 158 184 221 342 323 308 324 324 322 319 317 318 318 309 304 303 308 300 285 276 271 260 258 247 251 259 253 253 245 235 227 223 214 220 209 197 188 190 186
293 285 283 283 323 322 293 291 279 262 187 132 339 299 322 324 320 325 321 318 319 320 318 316 311 308 306 303 296 277 272 274 251 245 246 249 253 250 254 237 217 217 224 218 199 210 199 189 179
288 259 322 302 333 274 297 283 158 155 149 197 241 314 327 327 329 326 323 324 321 319 317 310 305 305 298 291 288 285 271 271 268 254 226 233 256 253 252 250 239 222 216 225 226 223 208 182 193
287 2 325 315 29 304 49 281 308 135 191 186 315 329 326 335 326 322 326 325 328 318 314 313 307 307 301 292 282 275 257 262 254 249 245 251 247 252 254 262 241 232 217 212 218 210 204 185 176
248 321 291 290 91 345 182 77 257 149 210 348 334 329 327 337 332 333 330 328 323 321 318 311 311 310 307 298 288 265 250 251 262 238 236 230 236 252 263 261 250 229 214 214 205 209 201 189 188
317 304 306 98 155 257 193 79 265 225 296 326 335 326 337 338 338 329 327 330 326 324 320 318 315 318 316 313 324 237 248 253 246 256 250 231 228 245 258 270 266 227 198 188 191 214 203 184 188
20 360 334 347 253 242 218 306 251 151 32 2 333 330 341 338 334 329 329 329 324 322 322 322 321 323 319 323 337 298 246 250 246 234 235 252 255 256 259 260 302 261 221 211 199 198 181 184 185
39 65 127 279 309 298 227 237 261 141 49 2 326 331 335 331 331 327 326 323 320 317 318 323 323 323 322 328 339 350 0 339 250 294 279 256 245 254 269 257 262 282 275 205 203 197 193 199 206
130 256 28 267 237 308 239 275 64 91 349 346 338 337 329 329 330 327 326 322 320 321 320 322 320 324 327 337 344 345 342 345 338 317 324 306 284 268 283 266 263 253 284 210 201 197 201 204 200
144 113 14 265 306 296 290 287 245 306 318 315 319 328 329 325 329 330 330 326 323 325 322 320 321 319 326 342 339 336 330 317 299 301 297 299 290 270 278 296 265 272 286 234 198 197 204 206 212
141 232 247 130 205 275 304 264 200 199 234 274 294 329 331 326 329 331 331 330 332 334 333 330 331 330 335 336 329 323 315 315 293 288 291 299 284 274 262 310 280 278 291 321 194 192 197 202 213
97 233 162 138 270 237 253 269 165 183 211 225 282 336 324 323 329 332 334 336 340 341 339 342 338 340 337 331 327 323 318 313 301 294 294 291 288 274 275 347 322 257 138 170 177 156 160 168 171